Regional Weather Roundup
Issued by NWS Goodland, KS

Home | Current Version | Previous Version | Text Only | Print | Product List | Glossary On
Versions: 1 2 3 4 5 6 7 8 9 10 11 12 13 14 15 16 17 18 19 20 21 22 23 24 25 26 27 28 29 30 31 32 33 34 35 36 37 38 39 40 41 42 43 44 45 46 47 48 49 50
000
ASUS43 KGLD 251608
RWRGLD

GOODLAND FORECAST AREA HOURLY WEATHER ROUNDUP
NATIONAL WEATHER SERVICE GOODLAND KS
1000 AM MDT MON JUL 25 2016

...OFFICIAL OBSERVATIONS...

CITY           SKY/WX    TMP DP  RH WIND       PRES   REMARKS
GOODLAND KS    SUNNY     75  62  64 SE3       30.20S
HILL CITY KS   CLOUDY    72  67  84 SE13      30.17F
IMPERIAL NEB   SUNNY     76  60  57 SE12      30.19S
MCCOOK NEB     SUNNY     80  62  54 SE14      30.18S
AKRON CO       SUNNY     73  58  59 SE16      30.21S
BURLINGTON CO  SUNNY     72  61  68 SE9       30.22F
LIMON CO       SUNNY     76  55  48 S12       30.24F
$$

...UNOFFICIAL OBSERVATIONS...

CITY           SKY/WX    TMP DP  RH WIND       PRES   REMARKS
COLBY KS       MOSUNNY   75  68  78 E12       30.21S
LENORA KS        N/A     74  32  21 MISG        N/A
NORTON KS      SUNNY     79  57  47 SE9       30.16S
YUMA CO          N/A     73  62  68 SE12        N/A
$$



USA.gov is the U.S. government's official web portal to all federal, state and local government web resources and services.